User: anonymous   Login
Location: Abraham Lincoln Continuation High School
(33.9711°N, 117.3662°W)
Time: 14:30:50
(UTC+00:00)
Language:

Meteor 1-21 - Orbit

View from above orbital plane
View from above orbital plane
View from above satellite
View from above satellite

Ground track
Ground track

The orbit data is extracted from the following two-line orbital elements,

1  7714U 75023A   20333.72878679  .00000158  00000-0  85793-4 0  9991
2  7714  81.2123  44.2258 0027635 306.0897  53.7714 14.08023476662577
Epoch (UTC): 28 November 2020 17:29:27
Eccentricity: 0.0027635
inclination: 81.2123°
perigee height: 846 km
apogee height: 886 km
right ascension of ascending node: 44.2258°
argument of perigee: 306.0897°
revolutions per day: 14.08023476
mean anomaly at epoch: 53.7714°
orbit number at epoch: 66257

The dashed part of the orbit path shows where the satellite is in the earth's shadow,  

DLR